Location: Unspecified
(0.0000°N, 0.0000°E)
Time: 00:29:35
(UTC+00:00)

deb r/b Ablestar - Visible Passes

Search period start: 18 May 2026 00:00
Search period end: 28 May 2026 00:00
Orbit: 898 x 966 km, 66.6° (Epoch: 17 May)

Date Brightness Start Highest point End Pass type
(mag) Time Alt. Az. Time Alt. Az. Time Alt. Az.
18 May ? 03:13:53 10° NNE 03:19:08 29° ENE 03:24:28 10° SE visible
18 May ? 05:00:37 10° WNW 05:05:28 24° WSW 05:10:24 10° SSW visible
19 May ? 03:25:23 10° N 03:31:22 54° ENE 03:37:27 10° SSE visible
19 May ? 05:15:15 10° W 05:17:46 13° WSW 05:20:20 10° SW visible
20 May ? 03:37:25 10° NNW 03:49:21 13° SSE 03:49:54 10° SSE visible
